Regional Weather Roundup
Issued by NWS Spokane, WA

Home | Current Version | Previous Version | Text Only | Print | Product List | Glossary On
Versions: 1 2 3 4 5 6 7 8 9 10 11 12 13 14 15 16 17 18 19 20 21 22 23 24 25 26 27 28 29 30 31 32 33 34 35 36 37 38 39 40 41 42 43 44 45 46 47 48 49 50
000
NZUS01 KOTX 210210
RWROTX
EASTERN WASHINGTON/NORTHERN IDAHO ROUNDUP
NATIONAL WEATHER SERVICE, SPOKANE WA
700 PM PDT MON OCT 20 2014

Note: "fair" indicated few or no clouds below 12,000 feet with no
significant weather and/or obstructions to visibility.

...NORTHEAST WASHINGTON AND NORTHERN IDAHO PANHANDLE...

CITY           SKY/WX    TMP DP  RH WIND       PRES   REMARKS
SPOKANE INTL   CLOUDY    62  45  53 SW8       29.74R
SPOKANE DOWNTO MOCLDY    64  44  48 SW8       29.73R
COEUR D ALENE  MOCLDY    55  43  62 S5        29.73R
DEER PARK      CLOUDY    58  48  69 S6        29.72S
SANDPOINT      MOCLDY    54  52  94 CALM      29.72S

...SOUTHEAST WASHINGTON AND SOUTHERN IDAHO PANHANDLE...

CITY           SKY/WX    TMP DP  RH WIND       PRES   REMARKS
WALLA WALLA    CLOUDY    62  45  53 SW15      29.83R
PULLMAN/MOSCOW MOCLDY    59  45  59 W13       29.79R
LEWISTON       MOCLDY    66  48  52 NW10      29.73R
LOWELL           N/A     54  51  90 CALM      29.71R

...COLUMBIA BASIN...

CITY           SKY/WX    TMP DP  RH WIND       PRES   REMARKS
EPHRATA        LGT RAIN  56  53  90 S7        29.77R
MOSES LAKE     RAIN      57  53  86 SW9       29.80R
TRI CITIES     LGT RAIN  59  49  69 W13       29.82R
HERMISTON      LGT RAIN  55  52  89 SW5       29.84S
PENDLETON      CLOUDY    54  47  77 W16       29.84R

...EAST SLOPES CASCADES...

CITY           SKY/WX    TMP DP  RH WIND       PRES   REMARKS
THE DALLES     MOCLDY    55  52  89 NW3       29.81R
YAKIMA         CLOUDY    55  48  77 SE13      29.77S
ELLENSBURG     CLOUDY    54  50  86 SW3       29.76S
WENATCHEE      LGT RAIN  56  52  86 CALM      29.75S
OMAK           LGT RAIN  53  51  93 CALM      29.75R

...SOUTHERN BRITISH COLUMBIA...

CITY           SKY/WX    TMP DP  RH WIND       PRES   REMARKS
PENTICTON      CLOUDY    55  50  82 N12       29.68F
CASTLEGAR      LGT RAIN  55  50  82 N12       29.70S
CRANBROOK      MOCLDY    55  39  54 S8        29.73S

...WESTERN MONTANA...

CITY           SKY/WX    TMP DP  RH WIND       PRES   REMARKS
MISSOULA       MOCLDY    57  41  55 S5        29.72S

...NEIGHBORING CITIES...

CITY           SKY/WX    TMP DP  RH WIND       PRES   REMARKS
SEATTLE        PTCLDY    58  51  78 S12       29.77
CALGARY        PTCLDY    61  32  33 S7        29.61R



USA.gov is the U.S. government's official web portal to all federal, state and local government web resources and services.